Hourly Data Report for June 01, 2021

WESTERN HEAD
NOVA SCOTIA
Current Station Operator: ECCC - MSC

43°59'24.070" N
64°39'51.008" W
10.10 m
8206240
71411
WWE

Download Data

Hourly Data (June 2021)
Hourly Data Report for June 1, 2021
TIME
LST
Temp Definition
°C
Dew Point Definition
°C
Rel Hum Definition
%
Precip. Amount Definition
mm

Wind Dir Definition
10's deg

Wind Spd Definition
km/h
Visibility Definition
km
Stn Press Definition
kPa
Hmdx Definition


Wind Chill Definition


Weather Definition


00:00 8.2 8.2 100 0.0 20 31   101.50     LegendNANA
01:00 7.8 7.8 100 0.0 20 25   101.46     LegendNANA
02:00 7.8 7.8 100 0.0 20 18   101.48     LegendNANA
03:00 7.7 7.7 100 0.0 19 25   101.41     LegendNANA
04:00 8.2 8.2 100 0.0 20 21   101.50     LegendNANA
05:00 9.5 9.5 100 0.0 22 18   101.52     LegendNANA
06:00 9.5 9.5 100 0.0 22 17   101.52     LegendNANA
07:00 10.1 10.1 100 0.0 22 21   101.55     LegendNANA
08:00 10.8 10.8 100 0.0 23 19   101.62     LegendNANA
09:00 13.0 13.0 100 0.0 25 18   101.63     LegendNANA
10:00 12.8 LegendMM LegendMM 0.0 26 18   101.65     LegendNANA
11:00 13.8 LegendMM LegendMM 0.0 26 21   101.68     LegendNANA
12:00 15.2 11.5 78 0.0 26 15   101.70     LegendNANA
13:00 17.1 11.8 71 0.0 27 16   101.70     LegendNANA
14:00 19.5 11.0 58 0.0 30 17   101.68     LegendNANA
15:00 21.5 10.9 51 0.0 29 16   101.71     LegendNANA
16:00 22.0 9.7 46 0.0 30 18   101.69     LegendNANA
17:00 22.0 10.0 46 0.0 26 13   101.69     LegendNANA
18:00 13.8 9.0 73 0.0 22 9   101.75     LegendNANA
19:00 11.4 8.3 81 0.0 22 12   101.83     LegendNANA
20:00 8.7 7.8 94 0.0 22 11   101.85     LegendNANA
21:00 9.7 7.6 87 0.0 22 12   101.90     LegendNANA
22:00 10.1 7.4 83 0.0 22 13   101.93     LegendNANA
23:00 11.6 8.6 82 0.0 25 13   101.91     LegendNANA

Notes on Data Quality.

Legend

  • E = Estimated
  • M = Missing
  • NA = Not Available*
  • [empty] = Indicates an unobserved value
Date modified: